Simultaneous Nadir Overpasses (SNOs) Predictions

Prediction of SNOs between GOES-16 and NPP Satellite Orbit:

Table of predicted SNOs for the next 14.0 days since TLE Epoch: 8/24/2024
Index Date Time (GOES-16) GOES-16 Lat,Lon NPP Lat,Lon Distance(km) Time Diff (sec)
1 08/24/2024 18:23:33 -0.06, -75.21 0.13, -74.38 94.70 80
2 08/27/2024 06:23:55 0.05, -75.21 0.02, -75.11 11.93 80
3 08/29/2024 18:27:05 -0.04, -75.23 -0.17, -75.89 74.05 80
4 08/30/2024 18:11:00 -0.04, -75.24 0.83, -71.35 443.63 80
5 09/01/2024 06:32:46 0.02, -75.26 0.36, -76.61 154.71 80
6 09/02/2024 06:11:22 0.02, -75.28 -0.71, -72.09 363.63 80
7 09/03/2024 18:33:17 -0.02, -75.31 -0.48, -77.39 237.52 80
8 09/04/2024 18:17:12 -0.02, -75.33 0.54, -72.86 281.47 80
9 09/06/2024 06:38:58 0.02, -75.36 0.64, -78.12 315.03 80
